QPF
0.00 0.00 0.00 0.01 0.01 0.02 0.02 0.01 0.01 0.01 0.01 0.01 0.02 0.02 0.01 0.01 0.01 0.01 0.01 0.01 0.01 0.01 0.01 0.01 0.01 0.01 0.01 0.01 0.01 0.00 0.00 0.00 0.00 0.00 0.01 0.01 0.01 0.01 0.00 0.00 0.00 0.00 0.00
0.00 0.00 0.00 0.00 0.01 0.02 0.03 0.01 0.01 0.01 0.01 0.01 0.01 0.01 0.01 0.01 0.01 0.01 0.01 0.01 0.01 0.01 0.01 0.01 0.01 0.01 0.01 0.01 0.00 0.00 0.00 0.00 0.00 0.00 0.00 0.00 0.00 0.01 0.00 0.00 0.00 0.00 0.00
0.00 0.00 0.00 0.00 0.01 0.02 0.02 0.01 0.02 0.02 0.02 0.01 0.01 0.00 0.00 0.00 0.00 0.00 0.00 0.00 0.00 0.00 0.00 0.00 0.00 0.00 0.01 0.00 0.00 0.00 0.00 0.00 0.00 0.00 0.00 0.00 0.00 0.00 0.00 0.00 0.00 0.00 0.00
0.00 0.00 0.00 0.00 0.01 0.02 0.02 0.01 0.01 0.02 0.01 0.01 0.01 0.01 0.00 0.00 0.00 0.00 0.00 0.00 0.00 0.00 0.00 0.00 0.00 0.00 0.00 0.00 0.00 0.00 0.00 0.00 0.00 0.00 0.00 0.00 0.00 0.00 0.00 0.00 0.00 0.00 0.00
0.00 0.00 0.00 0.00 0.01 0.02 0.02 0.02 0.01 0.01 0.01 0.01 0.00 0.00 0.00 0.00 0.00 0.00 0.00 0.00 0.00 0.00 0.00 0.00 0.00 0.00 0.00 0.00 0.00 0.00 0.00 0.00 0.00 0.00 0.00 0.00 0.00 0.00 0.00 0.00 0.00 0.00 0.00
0.00 0.00 0.00 0.00 0.01 0.01 0.01 0.01 0.01 0.01 0.01 0.00 0.00 0.00 0.00 0.00 0.00 0.00 0.00 0.00 0.00 0.00 0.00 0.00 0.00 0.00 0.00 0.00 0.00 0.00 0.00 0.00 0.00 0.00 0.00 0.00 0.00 0.00 0.00 0.00 0.00 0.00 0.00
0.00 0.00 0.00 0.00 0.01 0.01 0.01 0.01 0.01 0.01 0.01 0.00 0.00 0.00 0.00 0.00 0.00 0.00 0.00 0.00 0.00 0.00 0.00 0.00 0.00 0.00 0.00 0.00 0.00 0.00 0.00 0.00 0.00 0.00 0.00 0.00 0.00 0.00 0.00 0.00 0.00 0.00 0.00
0.00 0.00 0.00 0.00 0.01 0.01 0.01 0.01 0.01 0.01 0.00 0.00 0.01 0.01 0.00 0.00 0.00 0.00 0.00 0.00 0.00 0.00 0.00 0.00 0.00 0.00 0.00 0.00 0.00 0.00 0.00 0.00 0.00 0.00 0.00 0.00 0.00 0.00 0.00 0.00 0.00 0.00 0.00
0.00 0.00 0.00 0.00 0.01 0.01 0.01 0.00 0.00 0.01 0.01 0.01 0.01 0.01 0.00 0.00 0.00 0.00 0.00 0.00 0.00 0.00 0.00 0.00 0.00 0.00 0.00 0.00 0.00 0.00 0.00 0.00 0.00 0.00 0.00 0.00 0.00 0.00 0.00 0.00 0.00 0.00 0.00
0.00 0.00 0.00 0.00 0.00 0.01 0.01 0.00 0.00 0.01 0.01 0.01 0.01 0.01 0.00 0.00 0.00 0.00 0.00 0.00 0.00 0.00 0.00 0.00 0.00 0.00 0.00 0.00 0.00 0.00 0.00 0.00 0.00 0.00 0.00 0.00 0.00 0.00 0.00 0.00 0.00 0.00 0.00
0.00 0.00 0.00 0.00 0.00 0.01 0.01 0.00 0.00 0.01 0.01 0.01 0.01 0.00 0.00 0.00 0.00 0.00 0.00 0.00 0.00 0.00 0.00 0.00 0.00 0.00 0.00 0.00 0.00 0.00 0.00 0.00 0.00 0.00 0.00 0.00 0.00 0.00 0.00 0.00 0.00 0.00 0.00
0.00 0.00 0.00 0.00 0.00 0.01 0.01 0.00 0.01 0.00 0.01 0.01 0.01 0.00 0.00 0.00 0.00 0.00 0.00 0.00 0.00 0.00 0.00 0.00 0.00 0.00 0.00 0.00 0.00 0.00 0.00 0.00 0.00 0.00 0.00 0.00 0.00 0.00 0.00 0.00 0.00 0.00 0.01
0.00 0.00 0.00 0.00 0.00 0.01 0.01 0.01 0.01 0.01 0.01 0.01 0.01 0.00 0.00 0.00 0.00 0.00 0.00 0.00 0.00 0.00 0.00 0.00 0.00 0.00 0.00 0.00 0.00 0.00 0.00 0.00 0.00 0.00 0.00 0.00 0.00 0.00 0.00 0.00 0.00 0.00 0.01
0.00 0.00 0.00 0.00 0.00 0.00 0.00 0.00 0.01 0.01 0.01 0.01 0.00 0.00 0.00 0.00 0.00 0.00 0.00 0.00 0.00 0.00 0.00 0.01 0.00 0.00 0.00 0.00 0.00 0.00 0.00 0.00 0.00 0.00 0.00 0.00 0.00 0.00 0.00 0.00 0.00 0.00 0.01
0.00 0.00 0.00 0.00 0.00 0.00 0.00 0.00 0.00 0.01 0.00 0.00 0.00 0.00 0.00 0.00 0.01 0.01 0.00 0.00 0.00 0.00 0.00 0.00 0.00 0.00 0.00 0.00 0.00 0.00 0.00 0.00 0.00 0.00 0.00 0.00 0.00 0.00 0.00 0.00 0.00 0.00 0.01
0.00 0.00 0.00 0.00 0.00 0.00 0.00 0.00 0.00 0.00 0.00 0.00 0.01 0.00 0.00 0.00 0.01 0.01 0.00 0.00 0.00 0.00 0.00 0.00 0.00 0.00 0.00 0.00 0.00 0.00 0.00 0.00 0.00 0.00 0.00 0.00 0.00 0.00 0.00 0.00 0.00 0.00 0.00
0.00 0.00 0.00 0.00 0.00 0.01 0.01 0.00 0.00 0.00 0.00 0.01 0.01 0.00 0.00 0.00 0.01 0.00 0.00 0.00 0.00 0.00 0.00 0.00 0.00 0.00 0.00 0.00 0.00 0.00 0.00 0.00 0.00 0.00 0.00 0.00 0.00 0.00 0.00 0.00 0.00 0.00 0.00
0.00 0.00 0.00 0.00 0.00 0.00 0.01 0.01 0.00 0.01 0.01 0.01 0.01 0.00 0.00 0.00 0.00 0.00 0.00 0.01 0.00 0.00 0.00 0.00 0.00 0.00 0.00 0.00 0.00 0.00 0.00 0.00 0.00 0.00 0.00 0.00 0.00 0.00 0.00 0.00 0.00 0.00 0.00
0.00 0.00 0.00 0.00 0.00 0.00 0.01 0.01 0.01 0.01 0.01 0.01 0.01 0.01 0.01 0.00 0.00 0.00 0.01 0.01 0.00 0.01 0.01 0.01 0.01 0.01 0.01 0.01 0.00 0.00 0.00 0.00 0.00 0.00 0.00 0.00 0.00 0.00 0.00 0.00 0.00 0.00 0.00
0.00 0.00 0.00 0.00 0.00 0.00 0.01 0.01 0.01 0.01 0.01 0.01 0.01 0.01 0.01 0.01 0.01 0.01 0.01 0.01 0.01 0.01 0.01 0.01 0.00 0.00 0.00 0.00 0.00 0.00 0.00 0.00 0.00 0.00 0.00 0.00 0.00 0.00 0.00 0.00 0.00 0.00 0.00
0.00 0.00 0.00 0.00 0.00 0.00 0.01 0.01 0.01 0.01 0.01 0.01 0.01 0.01 0.01 0.01 0.01 0.01 0.01 0.01 0.01 0.01 0.00 0.00 0.00 0.00 0.00 0.00 0.00 0.00 0.00 0.00 0.00 0.00 0.00 0.00 0.00 0.00 0.00 0.00 0.00 0.00 0.00
0.00 0.00 0.00 0.00 0.00 0.00 0.00 0.01 0.01 0.01 0.01 0.01 0.01 0.01 0.01 0.01 0.01 0.01 0.01 0.01 0.00 0.00 0.00 0.00 0.00 0.00 0.00 0.00 0.00 0.00 0.00 0.00 0.00 0.00 0.00 0.00 0.00 0.00 0.00 0.00 0.00 0.00 0.00
0.00 0.00 0.00 0.00 0.00 0.00 0.00 0.01 0.01 0.01 0.01 0.01 0.01 0.01 0.00 0.00 0.00 0.00 0.00 0.00 0.00 0.00 0.00 0.00 0.00 0.00 0.00 0.00 0.00 0.00 0.00 0.00 0.00 0.00 0.00 0.00 0.00 0.00 0.00 0.00 0.00 0.00 0.00
0.00 0.00 0.00 0.00 0.00 0.00 0.00 0.00 0.00 0.00 0.00 0.00 0.00 0.00 0.00 0.00 0.00 0.00 0.00 0.00 0.00 0.00 0.00 0.00 0.00 0.00 0.00 0.00 0.00 0.00 0.00 0.00 0.00 0.00 0.00 0.00 0.00 0.00 0.00 0.00 0.00 0.00 0.00
0.00 0.00 0.00 0.00 0.00 0.00 0.00 0.00 0.00 0.00 0.00 0.00 0.00 0.00 0.00 0.00 0.00 0.00 0.00 0.00 0.00 0.00 0.00 0.00 0.00 0.00 0.00 0.00 0.00 0.00 0.00 0.00 0.00 0.00 0.00 0.00 0.00 0.00 0.00 0.00 0.00 0.00 0.00
0.00 0.00 0.00 0.00 0.00 0.00 0.00 0.00 0.01 0.00 0.00 0.00 0.00 0.00 0.00 0.00 0.00 0.00 0.00 0.00 0.00 0.00 0.00 0.00 0.00 0.00 0.00 0.00 0.00 0.00 0.00 0.00 0.00 0.00 0.00 0.00 0.00 0.00 0.00 0.00 0.00 0.00 0.00
MSLP
1015.73 1015.81 1015.98 1016.24 1016.61 1017.03 1017.46 1017.85 1018.17 1018.39 1018.53 1018.61 1018.68 1018.77 1018.88 1019.02 1019.16 1019.29 1019.37 1019.42 1019.42 1019.41 1019.39 1019.40 1019.42 1019.46 1019.49 1019.50 1019.48 1019.42 1019.32 1019.20 1019.10 1019.02 1018.98 1018.97 1018.98 1018.98 1018.97 1018.92 1018.84 1018.74 1018.62
1015.41 1015.55 1015.80 1016.17 1016.63 1017.14 1017.63 1018.04 1018.36 1018.58 1018.71 1018.80 1018.89 1019.02 1019.19 1019.39 1019.59 1019.77 1019.90 1019.96 1019.98 1019.97 1019.96 1019.96 1019.98 1020.02 1020.05 1020.05 1020.02 1019.93 1019.80 1019.66 1019.53 1019.43 1019.38 1019.37 1019.38 1019.39 1019.38 1019.34 1019.27 1019.18 1019.07
1015.12 1015.33 1015.66 1016.13 1016.68 1017.26 1017.80 1018.26 1018.59 1018.81 1018.95 1019.05 1019.17 1019.34 1019.55 1019.79 1020.03 1020.24 1020.38 1020.45 1020.47 1020.44 1020.42 1020.41 1020.42 1020.45 1020.48 1020.47 1020.43 1020.33 1020.19 1020.03 1019.89 1019.79 1019.74 1019.73 1019.75 1019.77 1019.78 1019.75 1019.68 1019.60 1019.51
1014.87 1015.15 1015.57 1016.12 1016.76 1017.40 1017.99 1018.48 1018.84 1019.08 1019.23 1019.35 1019.50 1019.69 1019.93 1020.20 1020.45 1020.66 1020.79 1020.85 1020.84 1020.80 1020.76 1020.73 1020.74 1020.76 1020.79 1020.78 1020.73 1020.63 1020.49 1020.34 1020.21 1020.11 1020.07 1020.08 1020.10 1020.13 1020.14 1020.11 1020.06 1019.98 1019.90
1014.68 1015.03 1015.53 1016.15 1016.85 1017.55 1018.18 1018.69 1019.07 1019.33 1019.50 1019.66 1019.83 1020.04 1020.30 1020.57 1020.82 1021.01 1021.13 1021.16 1021.12 1021.06 1021.00 1020.96 1020.96 1020.98 1021.00 1021.00 1020.96 1020.87 1020.74 1020.61 1020.49 1020.42 1020.39 1020.40 1020.43 1020.45 1020.45 1020.42 1020.36 1020.28 1020.20
1014.56 1014.98 1015.54 1016.21 1016.95 1017.67 1018.31 1018.84 1019.23 1019.51 1019.72 1019.90 1020.10 1020.34 1020.60 1020.88 1021.12 1021.29 1021.38 1021.39 1021.33 1021.25 1021.18 1021.14 1021.14 1021.17 1021.20 1021.21 1021.17 1021.10 1020.99 1020.88 1020.78 1020.72 1020.69 1020.70 1020.72 1020.72 1020.70 1020.65 1020.56 1020.47 1020.39
1014.51 1014.98 1015.58 1016.28 1017.02 1017.74 1018.38 1018.91 1019.30 1019.60 1019.83 1020.05 1020.28 1020.55 1020.83 1021.11 1021.35 1021.51 1021.58 1021.57 1021.51 1021.43 1021.36 1021.32 1021.33 1021.37 1021.41 1021.43 1021.40 1021.34 1021.25 1021.15 1021.06 1021.00 1020.97 1020.97 1020.96 1020.94 1020.88 1020.79 1020.67 1020.55 1020.45
1014.51 1015.02 1015.64 1016.34 1017.06 1017.76 1018.37 1018.87 1019.26 1019.57 1019.83 1020.09 1020.36 1020.66 1020.97 1021.26 1021.50 1021.67 1021.74 1021.73 1021.68 1021.61 1021.56 1021.54 1021.56 1021.60 1021.64 1021.66 1021.64 1021.59 1021.50 1021.40 1021.31 1021.25 1021.21 1021.18 1021.14 1021.08 1020.98 1020.85 1020.69 1020.54 1020.41
1014.56 1015.09 1015.71 1016.38 1017.07 1017.71 1018.27 1018.74 1019.12 1019.44 1019.73 1020.02 1020.34 1020.68 1021.02 1021.34 1021.59 1021.77 1021.86 1021.87 1021.84 1021.80 1021.77 1021.77 1021.80 1021.85 1021.88 1021.89 1021.86 1021.79 1021.69 1021.59 1021.49 1021.42 1021.36 1021.32 1021.25 1021.16 1021.02 1020.84 1020.65 1020.46 1020.30
1014.62 1015.16 1015.76 1016.40 1017.02 1017.60 1018.11 1018.54 1018.91 1019.24 1019.55 1019.89 1020.25 1020.63 1021.01 1021.35 1021.63 1021.83 1021.94 1021.98 1021.98 1021.96 1021.96 1021.98 1022.01 1022.05 1022.07 1022.06 1022.00 1021.91 1021.79 1021.67 1021.56 1021.48 1021.42 1021.36 1021.28 1021.17 1021.00 1020.80 1020.57 1020.35 1020.16
1014.65 1015.19 1015.77 1016.36 1016.93 1017.46 1017.91 1018.31 1018.67 1019.01 1019.36 1019.73 1020.14 1020.55 1020.96 1021.32 1021.62 1021.83 1021.96 1022.03 1022.05 1022.06 1022.08 1022.11 1022.14 1022.16 1022.16 1022.11 1022.02 1021.89 1021.75 1021.62 1021.50 1021.42 1021.36 1021.31 1021.24 1021.12 1020.96 1020.75 1020.51 1020.26 1020.04
1014.62 1015.15 1015.71 1016.27 1016.79 1017.27 1017.69 1018.07 1018.42 1018.78 1019.16 1019.57 1020.01 1020.45 1020.87 1021.25 1021.55 1021.77 1021.91 1021.99 1022.03 1022.06 1022.09 1022.12 1022.15 1022.15 1022.12 1022.03 1021.91 1021.75 1021.58 1021.43 1021.31 1021.24 1021.20 1021.17 1021.12 1021.04 1020.91 1020.71 1020.48 1020.23 1019.99
1014.47 1015.00 1015.55 1016.08 1016.58 1017.02 1017.43 1017.80 1018.17 1018.56 1018.97 1019.41 1019.87 1020.33 1020.75 1021.12 1021.42 1021.63 1021.77 1021.86 1021.91 1021.95 1021.99 1022.02 1022.03 1022.02 1021.96 1021.84 1021.68 1021.50 1021.31 1021.15 1021.03 1020.97 1020.96 1020.96 1020.96 1020.93 1020.84 1020.69 1020.49 1020.25 1020.00
1014.18 1014.72 1015.27 1015.79 1016.28 1016.72 1017.13 1017.52 1017.92 1018.33 1018.78 1019.24 1019.72 1020.18 1020.59 1020.95 1021.22 1021.42 1021.56 1021.64 1021.70 1021.75 1021.79 1021.82 1021.83 1021.80 1021.72 1021.59 1021.41 1021.20 1021.00 1020.84 1020.72 1020.67 1020.68 1020.72 1020.77 1020.79 1020.77 1020.68 1020.52 1020.31 1020.08
1013.74 1014.30 1014.86 1015.39 1015.88 1016.34 1016.78 1017.21 1017.64 1018.10 1018.57 1019.05 1019.53 1019.98 1020.38 1020.72 1020.97 1021.16 1021.28 1021.37 1021.43 1021.49 1021.54 1021.58 1021.60 1021.57 1021.49 1021.35 1021.16 1020.94 1020.73 1020.55 1020.43 1020.39 1020.41 1020.47 1020.56 1020.64 1020.67 1020.65 1020.55 1020.39 1020.18
1013.18 1013.76 1014.33 1014.89 1015.41 1015.90 1016.38 1016.85 1017.34 1017.83 1018.33 1018.82 1019.30 1019.74 1020.12 1020.44 1020.68 1020.86 1020.98 1021.08 1021.16 1021.23 1021.31 1021.36 1021.40 1021.38 1021.31 1021.17 1020.99 1020.77 1020.55 1020.36 1020.23 1020.16 1020.17 1020.25 1020.35 1020.46 1020.54 1020.57 1020.54 1020.44 1020.28
1012.55 1013.15 1013.75 1014.33 1014.88 1015.43 1015.95 1016.48 1017.00 1017.53 1018.05 1018.56 1019.03 1019.46 1019.83 1020.13 1020.37 1020.55 1020.69 1020.81 1020.92 1021.02 1021.12 1021.21 1021.26 1021.27 1021.22 1021.11 1020.93 1020.72 1020.50 1020.29 1020.13 1020.03 1020.00 1020.05 1020.14 1020.26 1020.37 1020.44 1020.47 1020.42 1020.32
1011.93 1012.54 1013.16 1013.77 1014.37 1014.96 1015.53 1016.11 1016.68 1017.23 1017.77 1018.28 1018.75 1019.16 1019.52 1019.82 1020.07 1020.27 1020.44 1020.59 1020.74 1020.88 1021.01 1021.13 1021.21 1021.25 1021.23 1021.14 1020.99 1020.79 1020.56 1020.34 1020.14 1019.99 1019.91 1019.90 1019.95 1020.05 1020.16 1020.26 1020.32 1020.34 1020.29
1011.37 1011.99 1012.63 1013.27 1013.91 1014.54 1015.17 1015.78 1016.38 1016.96 1017.51 1018.01 1018.47 1018.88 1019.23 1019.54 1019.81 1020.04 1020.25 1020.45 1020.63 1020.80 1020.97 1021.11 1021.23 1021.30 1021.31 1021.25 1021.13 1020.95 1020.73 1020.49 1020.25 1020.05 1019.90 1019.82 1019.81 1019.85 1019.94 1020.04 1020.13 1020.19 1020.19
1010.94 1011.57 1012.22 1012.88 1013.55 1014.22 1014.88 1015.53 1016.16 1016.75 1017.29 1017.79 1018.23 1018.63 1018.99 1019.31 1019.61 1019.87 1020.12 1020.36 1020.58 1020.78 1020.97 1021.14 1021.28 1021.37 1021.41 1021.39 1021.31 1021.16 1020.95 1020.71 1020.45 1020.20 1019.99 1019.83 1019.74 1019.72 1019.76 1019.84 1019.93 1020.00 1020.04
1010.66 1011.29 1011.94 1012.61 1013.30 1014.00 1014.69 1015.36 1016.00 1016.59 1017.13 1017.61 1018.05 1018.44 1018.80 1019.14 1019.46 1019.76 1020.05 1020.32 1020.56 1020.79 1020.99 1021.17 1021.32 1021.44 1021.51 1021.53 1021.49 1021.39 1021.22 1020.99 1020.73 1020.45 1020.18 1019.96 1019.79 1019.69 1019.67 1019.70 1019.76 1019.84 1019.89
1010.53 1011.15 1011.80 1012.47 1013.16 1013.87 1014.58 1015.26 1015.90 1016.49 1017.01 1017.48 1017.91 1018.29 1018.66 1019.01 1019.35 1019.68 1020.00 1020.30 1020.57 1020.81 1021.02 1021.20 1021.35 1021.48 1021.59 1021.65 1021.66 1021.61 1021.50 1021.31 1021.07 1020.79 1020.49 1020.21 1019.98 1019.80 1019.70 1019.66 1019.68 1019.72 1019.77
1010.52 1011.12 1011.75 1012.40 1013.09 1013.79 1014.49 1015.16 1015.80 1016.38 1016.90 1017.36 1017.77 1018.16 1018.53 1018.90 1019.26 1019.62 1019.97 1020.29 1020.57 1020.82 1021.03 1021.21 1021.37 1021.51 1021.64 1021.75 1021.82 1021.84 1021.79 1021.67 1021.48 1021.22 1020.92 1020.60 1020.31 1020.06 1019.88 1019.76 1019.70 1019.69 1019.69
1010.59 1011.16 1011.75 1012.36 1013.01 1013.68 1014.36 1015.03 1015.65 1016.22 1016.73 1017.19 1017.60 1018.00 1018.38 1018.77 1019.16 1019.55 1019.92 1020.26 1020.56 1020.81 1021.03 1021.21 1021.37 1021.53 1021.69 1021.84 1021.97 1022.06 1022.09 1022.05 1021.92 1021.70 1021.42 1021.09 1020.76 1020.45 1020.18 1019.97 1019.83 1019.73 1019.67
1010.70 1011.22 1011.74 1012.30 1012.89 1013.51 1014.16 1014.79 1015.40 1015.97 1016.47 1016.93 1017.36 1017.77 1018.17 1018.59 1019.01 1019.43 1019.83 1020.20 1020.53 1020.80 1021.02 1021.22 1021.39 1021.56 1021.75 1021.94 1022.12 1022.28 1022.38 1022.42 1022.35 1022.19 1021.94 1021.62 1021.26 1020.90 1020.55 1020.26 1020.02 1019.83 1019.69
1010.79 1011.24 1011.69 1012.17 1012.69 1013.25 1013.84 1014.44 1015.03 1015.59 1016.10 1016.57 1017.01 1017.44 1017.88 1018.33 1018.79 1019.25 1019.69 1020.10 1020.46 1020.76 1021.01 1021.23 1021.42 1021.61 1021.81 1022.03 1022.25 1022.46 1022.62 1022.72 1022.72 1022.61 1022.40 1022.10 1021.73 1021.33 1020.93 1020.56 1020.23 1019.95 1019.72
Thickness
5742 5740 5736 5733 5730 5728 5726 5725 5723 5721 5720 5719 5718 5716 5715 5714 5713 5712 5712 5711 5711 5711 5710 5709 5708 5708 5707 5707 5706 5705 5704 5704 5704 5705 5704 5704 5704 5704 5703 5703 5703 5703 5704
5746 5739 5735 5732 5729 5726 5724 5722 5720 5718 5716 5715 5713 5712 5711 5709 5708 5707 5707 5706 5705 5705 5704 5703 5703 5702 5701 5700 5699 5698 5698 5698 5698 5698 5698 5697 5697 5697 5697 5696 5696 5696 5697
5745 5738 5733 5730 5727 5724 5721 5719 5716 5714 5713 5711 5709 5708 5706 5705 5703 5702 5701 5700 5699 5699 5698 5697 5697 5696 5695 5693 5693 5692 5692 5692 5692 5692 5691 5690 5690 5690 5690 5689 5689 5689 5689
5744 5737 5732 5728 5725 5722 5719 5716 5714 5711 5709 5707 5705 5703 5702 5700 5699 5697 5696 5695 5694 5693 5692 5691 5690 5690 5688 5687 5686 5685 5685 5686 5686 5686 5684 5683 5683 5683 5683 5682 5682 5682 5682
5743 5736 5731 5726 5723 5720 5717 5714 5711 5708 5706 5704 5701 5699 5697 5696 5694 5692 5691 5689 5688 5687 5686 5685 5684 5683 5682 5681 5680 5679 5679 5679 5679 5679 5678 5676 5676 5676 5676 5675 5675 5675 5675
5741 5735 5729 5725 5721 5718 5714 5711 5708 5705 5703 5700 5698 5695 5693 5691 5689 5687 5686 5684 5683 5682 5681 5679 5678 5677 5676 5675 5674 5673 5673 5673 5673 5672 5671 5670 5669 5670 5669 5669 5669 5669 5668
5740 5734 5727 5723 5719 5716 5712 5709 5705 5702 5700 5697 5694 5692 5689 5687 5684 5682 5681 5679 5678 5676 5675 5674 5673 5672 5670 5669 5668 5667 5667 5667 5667 5666 5665 5663 5663 5663 5663 5663 5662 5662 5662
5740 5732 5725 5721 5717 5713 5710 5706 5703 5700 5697 5694 5691 5688 5685 5682 5680 5678 5676 5674 5672 5671 5670 5668 5667 5666 5665 5663 5662 5662 5661 5661 5661 5660 5659 5657 5656 5656 5657 5656 5656 5656 5656
5739 5731 5724 5719 5715 5711 5707 5703 5700 5697 5694 5690 5687 5684 5681 5678 5676 5673 5671 5669 5667 5665 5664 5663 5661 5660 5659 5658 5657 5656 5656 5656 5655 5655 5653 5651 5650 5650 5650 5650 5650 5650 5650
5737 5730 5723 5718 5713 5709 5704 5701 5697 5693 5690 5686 5683 5680 5677 5674 5671 5668 5666 5664 5662 5660 5659 5657 5656 5655 5654 5652 5651 5651 5650 5650 5650 5649 5647 5645 5644 5644 5644 5644 5644 5644 5644
5733 5729 5723 5718 5713 5708 5703 5698 5694 5690 5686 5683 5679 5676 5673 5670 5667 5664 5662 5659 5657 5655 5654 5652 5651 5650 5649 5647 5647 5646 5646 5646 5645 5644 5642 5640 5638 5638 5637 5637 5637 5637 5637
5729 5727 5723 5718 5713 5708 5702 5696 5692 5688 5683 5680 5676 5673 5670 5668 5665 5661 5658 5655 5653 5651 5649 5648 5646 5645 5644 5643 5642 5641 5641 5640 5640 5639 5637 5635 5633 5632 5631 5631 5631 5631 5631
5730 5727 5723 5719 5713 5707 5702 5695 5691 5686 5682 5678 5674 5670 5667 5664 5661 5657 5654 5651 5649 5647 5645 5643 5642 5641 5640 5639 5638 5637 5636 5635 5634 5634 5631 5629 5627 5626 5625 5625 5625 5625 5625
5729 5726 5723 5719 5713 5707 5701 5695 5690 5685 5680 5676 5673 5669 5665 5661 5658 5654 5651 5648 5645 5643 5641 5639 5638 5637 5636 5635 5633 5632 5631 5630 5629 5628 5626 5624 5622 5620 5619 5618 5618 5618 5618
5729 5726 5722 5718 5712 5705 5700 5694 5689 5684 5679 5675 5670 5666 5662 5658 5654 5651 5648 5644 5642 5639 5637 5635 5634 5632 5631 5629 5628 5627 5625 5624 5623 5622 5621 5619 5616 5615 5613 5612 5611 5611 5611
5730 5725 5721 5716 5710 5704 5698 5692 5687 5682 5677 5672 5667 5663 5659 5655 5651 5647 5644 5640 5637 5635 5632 5630 5628 5627 5625 5623 5622 5621 5619 5618 5617 5616 5615 5613 5611 5608 5606 5604 5603 5603 5602
5731 5726 5720 5714 5709 5702 5695 5689 5684 5679 5674 5669 5664 5659 5655 5651 5646 5642 5639 5635 5633 5630 5627 5625 5623 5621 5619 5617 5615 5614 5613 5612 5611 5610 5608 5607 5605 5602 5599 5597 5595 5594 5593
5731 5725 5719 5713 5706 5700 5693 5687 5681 5676 5671 5665 5660 5656 5651 5646 5642 5638 5634 5630 5627 5624 5621 5619 5616 5614 5611 5610 5608 5607 5606 5605 5604 5603 5602 5600 5598 5595 5592 5589 5587 5585 5584
5730 5724 5717 5710 5704 5697 5690 5684 5678 5673 5667 5662 5657 5652 5647 5642 5638 5633 5629 5626 5622 5619 5616 5613 5610 5607 5604 5602 5601 5600 5599 5599 5598 5596 5594 5592 5590 5587 5584 5582 5579 5577 5575
5728 5722 5715 5708 5701 5694 5687 5680 5673 5668 5663 5658 5653 5648 5643 5638 5633 5628 5624 5621 5617 5613 5609 5607 5604 5601 5598 5596 5594 5593 5593 5593 5592 5589 5587 5584 5582 5579 5576 5574 5571 5569 5566
5722 5717 5711 5704 5697 5691 5683 5676 5668 5662 5658 5653 5648 5643 5638 5633 5629 5624 5619 5615 5611 5607 5604 5601 5597 5594 5590 5588 5585 5583 5585 5587 5585 5582 5578 5575 5573 5570 5568 5565 5563 5561 5558
5716 5711 5706 5701 5693 5688 5681 5674 5666 5659 5653 5649 5644 5639 5634 5629 5624 5619 5614 5610 5606 5601 5597 5594 5590 5586 5582 5580 5575 5571 5569 5571 5574 5573 5569 5566 5563 5561 5558 5556 5553 5551 5549
5710 5706 5702 5697 5690 5683 5677 5669 5661 5653 5646 5641 5636 5632 5628 5624 5619 5614 5609 5605 5600 5596 5591 5587 5583 5579 5573 5570 5567 5561 5556 5554 5555 5559 5559 5556 5553 5550 5548 5546 5544 5542 5540
5705 5701 5697 5692 5685 5679 5672 5665 5656 5649 5642 5638 5633 5627 5623 5618 5614 5609 5604 5599 5595 5590 5585 5581 5576 5572 5567 5561 5558 5555 5551 5547 5542 5542 5545 5545 5543 5540 5538 5536 5534 5532 5530
5699 5694 5689 5685 5679 5673 5667 5660 5653 5646 5640 5634 5628 5622 5617 5613 5608 5603 5598 5593 5588 5583 5579 5574 5569 5565 5560 5555 5550 5546 5542 5538 5535 5529 5529 5531 5531 5531 5529 5527 5525 5523 5521
5691 5686 5681 5676 5671 5667 5661 5655 5649 5642 5636 5630 5623 5617 5612 5607 5602 5597 5592 5588 5582 5577 5572 5567 5562 5557 5553 5548 5543 5538 5533 5528 5524 5520 5518 5519 5520 5521 5520 5519 5517 5514 5512